Location: McFarlands Corners
(41.4117°N, 81.3382°W)
Time: 14:52:16
(UTC+00:00)

Tiros 1 despin weight - Pass Details

Date: 11 November 2024
Orbit: 570 x 610 km, 48.2° (Epoch: 01 December)

Event Time Altitude Azimuth Distance (km) Brightness Sun altitude
Exits shadow 08:49:48 12° 99° (E) 1,779 ? -37.5°
Drops below altitude 10° 08:50:27 10° 92° (E) 1,937 ? -37.4°
Sets 08:53:19 0° 73° (ENE) 2,824 ? -36.9°
